Location: Emporia
(38.4040°N, 96.1810°W)
Time: 14:36:38
(UTC-06:00)

ISS - Visible Passes

Search period start: 27 February 2017 00:00
Search period end: 09 March 2017 00:00
Orbit: 399 x 408 km, 51.6° (Epoch: 28 February)

Date Brightness Start Highest point End Pass type
(mag) Time Alt. Az. Time Alt. Az. Time Alt. Az.
28 Feb -0.4 05:55:02 10° S 05:57:14 17° SE 05:59:27 10° E visible
02 Mar -2.2 05:45:23 11° SSW 05:48:20 42° SE 05:51:29 10° ENE visible
03 Mar -1.1 04:55:34 20° SE 04:55:53 21° SE 04:58:26 10° E visible
04 Mar -3.4 05:38:14 34° WSW 05:39:30 72° NW 05:42:49 10° NE visible
05 Mar -1.6 04:48:03 34° ENE 04:48:03 34° ENE 04:50:10 10° ENE visible
05 Mar -1.6 06:21:03 10° WNW 06:23:35 20° NNW 06:26:09 10° NNE visible
06 Mar -2.3 05:30:24 30° NW 05:30:48 31° NNW 05:33:48 10° NE visible
07 Mar -1.0 04:39:59 22° NE 04:39:59 22° NE 04:41:20 10° NE visible
07 Mar -1.0 06:13:26 10° NW 06:15:06 13° NNW 06:16:46 10° NNE visible
08 Mar -1.4 05:22:06 18° NNW 05:22:10 18° NNW 05:24:32 10° NNE visible
